Deer Park, WA

7:56 AM PDT on October 20, 2017 (GMT -0700)
Deer Park

Weather History for KDEW - February, 2012

Change the Weather History Date:

Friday, February 24, 2012

  Actual Average Record
Temperature  
Mean Temperature 33 °F 32 °F  
Max Temperature 42 °F 42 °F 52 °F (2005)
Min Temperature 24 °F 22 °F 2 °F (2011)
Degree Days  
Heating Degree Days 32 33  
Month to date heating degree days 740 839  
Since 1 July heating degree days 4940 5235  
Cooling Degree Days 0 0  
Month to date cooling degree days 0 0  
Year to date cooling degree days 0 0  
Moisture  
Dew Point 28 °F    
Average Humidity 73    
Maximum Humidity 96    
Minimum Humidity 49    
Precipitation  
Precipitation 0.27 in 0.05 in 1.04 in (1999)
Month to date precipitation 1.47 1.38  
Year to date precipitation 3.55 4.01  
Sea Level Pressure  
Sea Level Pressure 29.92 in    
Wind  
Wind Speed 4 mph (ENE)    
Max Wind Speed 14 mph    
Max Gust Speed 17 mph    
Visibility 8 miles    
Events Rain , Snow    
T = Trace of Precipitation, MM = Missing Value Source: NWS Daily Summary

Daily Weather History Graph

Daily Weather History Graph

Search for Another Location

Airport or City:

Trip Planner

Search our weather history database for the weather conditions in past years. The results will help you decide how hot, cold, wet, or windy it might be!

Date:

Astronomy

Feb. 24, 2012 Rise Set
Actual Time 6:40 AM PST 5:25 PM PST
Civil Twilight 6:09 AM PST 5:57 PM PST
Nautical Twilight 5:33 AM PST 6:33 PM PST
Astronomical Twilight 4:57 AM PST 7:09 PM PST
Moon 7:20 AM PST (2/24) 8:54 PM PST (2/24)
Length of Visible Light 11h 47m
Length of Day
10h 45m
Waxing Crescent, 8% of the Moon is Illuminated
Feb 24
Waxing Crescent
Feb 29
First Quarter
Mar 8
Full
Mar 14
Last Quarter
Mar 22
New

Hourly Weather History & Observations

Time (PST) Temp. Windchill Dew Point Humidity Pressure Visibility Wind Dir Wind Speed Gust Speed Precip Events Conditions
12:53 AM 28.0 °F 22.8 °F 23.0 °F 81% 30.24 in 10.0 mi SE 4.6 mph - N/A   Clear
1:53 AM 28.0 °F - 21.9 °F 78% 30.25 in 10.0 mi Calm Calm - N/A   Clear
2:53 AM 26.1 °F - 21.9 °F 84% 30.25 in 10.0 mi Calm Calm - N/A   Scattered Clouds
3:53 AM 26.1 °F 19.4 °F 21.9 °F 84% 30.24 in 10.0 mi SSE 5.8 mph - N/A   Mostly Cloudy
4:53 AM 28.9 °F 23.9 °F 25.0 °F 85% 30.25 in 10.0 mi SSE 4.6 mph - N/A   Mostly Cloudy
5:53 AM 28.9 °F 25.2 °F 24.1 °F 82% 30.27 in 10.0 mi SSE 3.5 mph - N/A   Overcast
6:53 AM 28.9 °F - 25.0 °F 85% 30.25 in 10.0 mi Calm Calm - N/A   Overcast
7:53 AM 30.9 °F - 27.0 °F 85% 30.23 in 10.0 mi Calm Calm - N/A   Overcast
8:53 AM 30.9 °F - 27.0 °F 85% 30.22 in 10.0 mi North - - N/A   Overcast
9:53 AM 34.0 °F - 28.0 °F 79% 30.20 in 10.0 mi North - - N/A   Overcast
10:53 AM 35.1 °F - 27.0 °F 72% 30.15 in 10.0 mi North - - N/A   Overcast
11:53 AM 37.9 °F - 28.0 °F 68% 30.11 in 10.0 mi North - - N/A   Overcast
12:53 PM 39.0 °F 35.7 °F 28.0 °F 65% 30.05 in 10.0 mi ENE 4.6 mph - N/A   Overcast
1:53 PM 41.0 °F 37.1 °F 26.1 °F 55% 30.00 in 10.0 mi SSE 5.8 mph - N/A   Overcast
2:53 PM 41.0 °F 38.0 °F 25.0 °F 53% 29.96 in 10.0 mi ESE 4.6 mph - N/A   Overcast
3:53 PM 42.1 °F 39.2 °F 25.0 °F 51% 29.90 in 10.0 mi East 4.6 mph - N/A   Overcast
4:53 PM 39.9 °F 35.8 °F 27.0 °F 60% 29.84 in 10.0 mi North 5.8 mph - N/A   Overcast
5:53 PM 37.9 °F 32.7 °F 26.1 °F 62% 29.80 in 10.0 mi NNE 6.9 mph - N/A   Overcast
6:53 PM 37.9 °F 32.1 °F 26.1 °F 62% 29.75 in 10.0 mi NNE 8.1 mph - N/A   Overcast
7:53 PM 37.9 °F 32.7 °F 27.0 °F 65% 29.72 in 10.0 mi North 6.9 mph - 0.00 in Rain Light Rain
8:16 PM 37.4 °F 29.8 °F 28.4 °F 70% 29.66 in 10.0 mi North 11.5 mph - 0.00 in   Overcast
8:53 PM 35.1 °F 30.1 °F 32.0 °F 89% 29.69 in 10.0 mi NE 5.8 mph - 0.02 in   Overcast
9:53 PM 34.0 °F 28.0 °F 32.0 °F 92% 29.65 in 4.0 mi ENE 6.9 mph - 0.09 in Snow Light Snow
10:25 PM 33.8 °F 30.8 °F 32.0 °F 93% 29.57 in 2.5 mi NNE 3.5 mph - 0.05 in Snow Light Snow
10:53 PM 34.0 °F 31.0 °F 32.0 °F 92% 29.60 in 1.8 mi WNW 3.5 mph - 0.08 in Snow Light Snow
11:04 PM 33.8 °F 30.8 °F 32.0 °F 93% 29.55 in 1.2 mi WNW 3.5 mph - 0.02 in Snow Light Snow
11:12 PM 33.8 °F - 32.0 °F 93% 29.55 in 1.5 mi Calm Calm - 0.03 in Snow Light Snow
11:21 PM 33.8 °F - 33.8 °F 100% 29.55 in 1.2 mi Calm Calm - 0.04 in Snow Light Snow
11:38 PM 33.8 °F 30.8 °F 32.0 °F 93% 29.54 in 2.5 mi WSW 3.5 mph - 0.05 in Snow Light Snow
11:53 PM 33.1 °F - 32.0 °F 96% 29.57 in 2.5 mi Calm Calm - 0.07 in Snow Light Snow